Regional Weather Roundup
Issued by NWS

Home | Current Version | Previous Version | Text Only | Print | Product List | Glossary On
Versions: 1 2 3 4 5 6 7 8 9 10 11 12 13 14 15 16 17 18 19 20 21 22 23 24 25 26 27 28 29 30 31 32 33 34 35 36 37 38 39 40 41 42 43 44 45 46 47 48 49 50
000
ASUS44 KFWD 240803
RWRTX
NORTH TEXAS HOURLY WEATHER ROUNDUP
NATIONAL WEATHER SERVICE FORT WORTH TX
300 AM CDT THU AUG 24 2017

NOTE: "FAIR" INDICATES FEW OR NO CLOUDS BELOW 12,000 FEET WITH NO
SIGNIFICANT WEATHER AND/OR OBSTRUCTIONS TO VISIBILITY.

TXZ118-119-240900-
DALLAS/FORT WORTH METROPLEX

CITY           SKY/WX    TMP DP  RH WIND       PRES   REMARKS
DFW AIRPORT    RAIN      76  74  93 CALM      29.93F FOG
DALLAS LOVE    LGT RAIN  79  72  79 CALM      29.94S
FTW MEACHAM    RAIN      75  74  96 N6        29.94F
DAL-EXECUTIVE  CLOUDY    78  73  84 CALM      29.94S
FTW-ALLIANCE   LGT RAIN  74  73  97 N9        29.96F FOG
FTW-NAS-JRB    LGT RAIN  75  73  93 E3        29.95F
FTW-SPINKS     CLOUDY    75  74  95 N3        29.96S
ARLINGTON      CLOUDY    78  74  87 NW6       29.94F
GRAND PRAIRIE  CLOUDY    79  71  75 CALM      29.95F
ADDISON        CLOUDY    78  71  78 NE3       29.96F
MESQUITE         N/A     75  73  92 N3        29.94F
LANCASTER      CLOUDY    77  70  80 CALM      29.95S
$$

TXZ091>094-102>105-117-120-121-131>134-240900-
NORTH CENTRAL TEXAS

CITY           SKY/WX    TMP DP  RH WIND       PRES   REMARKS
SHRMAN/DENISON CLOUDY    74  73  95 E5        29.98S
GAINESVILLE    CLOUDY    73  72  96 N5        29.99S
BOWIE          CLOUDY    72  70  94 CALM      29.98F
BRIDGEPORT     CLOUDY    73  73 100 CALM      29.98F
DECATUR        CLOUDY    73  71  93 E7          N/A
DENTON         LGT RAIN  74  74 100 NW3       29.96S
MCKINNEY       CLOUDY    76  74  93 CALM      29.95F
BONHAM         PTCLDY    73  72  94 NE5       29.97S
ROCKWALL       CLOUDY    76  73  91 S5        29.95F
TERRELL        CLOUDY    76  71  85 N3        29.94S
WAXAHACHIE     CLOUDY    76  71  87 CALM      29.96S
GRANBURY       CLOUDY    77  72  84 CALM      29.96F
$$

TXZ083>090-098>101-113>116-127>130-139>142-154-155-240900-
WESTERN NORTH TEXAS

CITY           SKY/WX    TMP DP  RH WIND       PRES   REMARKS
WICHITA FALLS  PTCLDY    72  69  90 NE7       29.98F
WF-KICKAPOO    PTCLDY    72  70  93 NE5       30.01F
VERNON         CLOUDY    71  67  88 N3        30.02S
ABILENE        PTCLDY    71  70  96 CALM      30.01S
ABILENE-DYESS  MOCLDY    75  70  85 E5        30.00S
BRECKENRIDGE   CLOUDY    73  72  95 CALM      29.98S
CISCO          MOCLDY    73  70  88 NE5       30.00F
EASTLAND       PTCLDY    71  69  91 NE5       29.98S
RANGER         PTCLDY    71  70  96 NE5       29.98S
MINERAL WELLS  CLOUDY    75  71  87 NE5       29.95F
STEPHENVILLE   CLEAR     72  69  89 CALM      30.00S
COMANCHE       CLEAR     72  72 100 CALM      29.97S
BROWNWOOD      CLOUDY    73  72  94 SE6       29.98R
COLEMAN        CLOUDY    75  70  83 N3        29.99S
$$

TXZ143>147-156>162-174-175-240900-
CENTRAL TEXAS

CITY           SKY/WX    TMP DP  RH WIND       PRES   REMARKS
WACO           CLOUDY    78  71  79 N5        29.92S
WACO-MCGREGOR  CLOUDY    76  70  82 CALM      29.93S
HILLSBORO      CLOUDY    73  71  91 N3        29.94S
CORSICANA      CLOUDY    76  73  91 N5        29.94S
MEXIA          CLOUDY    73  72  96 S6        29.92S
HEARNE         PTCLDY    74  74 100 CALM      29.93R
CAMERON        CLOUDY    75  73  93 CALM      29.92R
TEMPLE         CLOUDY    74  73  97 CALM      29.94S
KILLEEN        CLOUDY    73  71  94 N5        29.93F
KILLEEN-SKYLRK CLOUDY    73  72  96 NW3       29.94S
FORT HOOD      CLOUDY   N/A N/A N/A N3        29.91S
GATESVILLE     CLEAR     72  70  94 CALM      29.96S
HAMILTON       PTCLDY    71  71 100 CALM      29.98S
$$

TXZ095>097-106>112-122>126-135>138-148>153-164>167-240900-
EAST TEXAS

CITY           SKY/WX    TMP DP  RH WIND       PRES   REMARKS
PARIS          CLOUDY    75  72  90 E12       29.97S
SULPHUR SPRNGS CLOUDY    76  74  94 E3        29.98R
MOUNT PLEASANT CLOUDY    75  74  96 E3        29.96S
GILMER         CLOUDY    74  74  99 CALM      29.95S FOG
MINEOLA        CLOUDY    73  72  94 CALM      29.94S
TYLER          CLOUDY    74  74 100 NE3       29.94R
LONGVIEW       CLOUDY    76  75  97 E7        29.93S
MARSHALL         N/A     73  70  92 CALM      29.97R
ATHENS         CLOUDY    73  72  94 CALM      29.93R
PALESTINE      CLOUDY    73  71  93 NE3       29.94R
JACKSONVILLE   CLOUDY    73  72  98 CALM      29.96R
HENDERSON      CLOUDY    74  73  95 CALM      29.95R
CENTER         MOSUNNY   77  76  96 N3        29.94S
NACOGDOCHES    CLEAR     74  74 100 CALM      29.93S
LUFKIN         CLEAR     74  72  93 CALM      29.91S
$$

SUPPLEMENTAL OBSERVATIONS (NWS FORT WORTH AREA)

CITY           SKY/WX    TMP DP  RH WIND       PRES   REMARKS
$$

SUPPLEMENTAL OBSERVATIONS (NWS NORMAN AREA)

CITY           SKY/WX    TMP DP  RH WIND       PRES   REMARKS
GOODLETT         N/A     69  66  89 N3        30.03S
ODELL            N/A     69  68  97 NE6       30.03F
CROWELL          N/A     72  70  95 NE3       30.04R
KNOX CITY        N/A     72  67  83 NE3       30.02S
SEYMOUR          N/A     73  68  84 NE5       30.01S
$$

SUPPLEMENTAL OBSERVATIONS (NWS SAN ANGELO AREA)

CITY           SKY/WX    TMP DP  RH WIND       PRES   REMARKS
WEINERT          N/A     71  67  88 E3        30.02S
HASKELL          N/A     71  69  94 NE3       30.02S
THROCKMORTON     N/A     70  69  95 N2        30.01S
STAMFORD         N/A     71  68  92 NE3       30.02S
CLYDE            N/A     71  69  92 E5        30.03S
$$

SUPPLEMENTAL OBSERVATIONS (NWS SHREVEPORT AREA)

CITY           SKY/WX    TMP DP  RH WIND       PRES   REMARKS
$$

SUPPLEMENTAL OBSERVATIONS ARE A COLLECTION OF AUTOMATED INSTRUMENTS
THAT ARE MAINTAINED BY A VARIETY OF FEDERAL AND STATE AGENCIES.
CERTAIN ELEMENTS...SUCH AS HUMIDITY VALUES AND SUSTAINED WIND
SPEEDS...MAY BE APPROXIMATED.





USA.gov is the U.S. government's official web portal to all federal, state and local government web resources and services.